{"data":{"norad_id":64852,"intl_designator":"2025-152L","name":"STARLINK-34564","alt_names":[],"object_type":"PAYLOAD","status":"ACTIVE","operator":null,"country":"US","launch_date":"2025-07-19","launch_site_code":"AFWTR","launch_vehicle":null,"mission":null,"orbit_class":"UNKNOWN","rcs_meters":null,"size_class":null,"mass_kg":null,"dimensions":null,"purposes":["comms"],"wikipedia_slug":null,"has_3d_model":false,"image_url":null,"decayed_at":null,"tle_current":{"epoch":"2026-05-25T02:12:28.909728Z","epoch_age_seconds":63155,"freshness":"FRESH","line1":"1 64852U 25152L   26145.09200127  .00003103  00000+0  21897-3 0  9995","line2":"2 64852  97.4513   0.4330 0001874 125.1649 234.9754 15.05658757 46917","mean_motion":15.05658757,"eccentricity":0.0001874,"inclination_deg":97.4513,"raan_deg":0.433,"arg_perigee_deg":125.1649,"mean_anomaly_deg":234.9754,"bstar":0.00021897,"rev_number":4691,"period_min":95.639200669159,"perigee_km":548.18605670969,"apogee_km":550.78252917028,"semimajor_km":6927.62129294,"source":"CELESTRAK","updated_at":"2026-05-25T13:38:20.613966Z"}}}